COSMOS 970 DEB, 64980

Orbit data source: Space-Track

COSMOS 970 DEB, 64980 is space debris in LEO originally from a launch on Wed, 21 Dec 1977 UTC launched from the Tyuratam Missile And Space Complex (TTMTR). Debris objects in space refer to the collection of defunct objects orbiting the Earth. Examples of debris include non-operational satellites, rocket bodies, and fragments generated from explosions, collisions, or faulty payload assembly.

Loading next visibility...
Identifier
64980, 1977-121CR
Orbit
LEO
Country
Flag of CISCIS
Related business
Manufacturer
Unknown
Mission
Spacecraft
Bus & Motor
Unknown
Mass
Unknown
Launch date (UTC)
1977-12-21 (48 years ago)
Launch vehicle
Unknown
Launch site
Tyuratam Missile And Space Complex (TTMTR)
Object type
Payload
Rocket body
Debris
Shape & HBR
Unknown shape, 0.1 m
Radar Cross Section
Small (<0.1 m²)

Expand to show TLE details & history
Last TLE update: 6 days ago

TLE from 6 days ago
0 COSMOS 970 DEB
1 64980U 77121CR  26166.26055727  .00000233  00000-0  32312-3 0  9992
2 64980  65.8326 355.8605 0117312 168.4599  10.6377 13.72827177106981
Epoch: 2026-06-15T06:15Z
TLE epoch observation values (Epoch: 2026-06-15T06:15:12.148Z)
Latitude
0.49932°
Longitude
178.2875°
Altitude
906.44 km
Speed
7.442 km/s
True Right ascension
11h 42m 33s
True Declination
0° 29' 47"
Sunlit
Object was in daylight at epoch
Visualization orbit readout
Latitude
Unknown
Longitude
Unknown
Altitude
Unknown
Speed
Unknown
Apparent Right ascension
Unknown
Apparent Declination
Unknown
Sunlit
N/A
Visualization observer readout
Local Sidereal Time
07:13:06
Azimuth
Unknown
Elevation
Unknown
Doppler factor
Unknown
Orbital elements
Apogee altitude
1,074.37 km
Perigee altitude
901.544 km
Semi-major axis
7,366.094 km
Eccentricity
0.01173
Inclination
65.8326°
RAAN
355.8605°
Arg. of periapsis
168.4599°
True anomaly
10.88948°
Mean anomaly
10.6377°
Eccentric anomaly
10.76322°
Mean motion
3.43311 °/min
Orbital period
104.86 mins
BSTAR
0.00032312
Loading maneuver chart data...
Computing Atmospheric mass density...
Loading historical data...
Loading historical data...
Loading historical data...
Loading historical data...
Loading historical data...
Loading historical data...
Loading historical data...

Documentation

Showing up to 5 results
|